[[{"header":{"parameterUnit":"m.s-1","parameterCategory":1,"la1":30.2991,"la2":30.254,"lo1":-89.0895,"lo2":-89.0444,"dy":0.0017,"dx":0.0017,"nx":28,"ny":28,"refTime":"2025-03-31T09:00:00:Z","depth":0,"parameterNumber":2,"parameterNumberName":"U-component_of_WINDS"},"data":[0,0,0,0,0,0,0,0,0,0,0,0,0,0,0,0,0,0,0,0,0,0,0,0,0,0,0,0,0,0,0,0,0,0,0,0,0,0,0,0,0,0,0,0,0,0,0,0,0,0,0,0,0,0,0,0,0,0,1.0564,1.0564,0,1.0591,1.0592,1.0592,1.057,1.0569,1.0568,1.0567,1.0595,1.0596,1.0598,0,0,0,0,0,0,0,0,0,0,0,0,0,1.0492,1.0494,1.0564,1.0564,1.0565,1.0591,1.0592,1.0592,1.057,1.0569,1.0567,1.0566,1.0594,1.0596,1.0598,0,0,0,0,0,0,0,0,0,0,0,0,0,1.0522,1.0494,1.0564,1.0557,1.0556,1.0591,1.0592,1.0592,1.057,1.0569,1.0567,1.0566,1.0594,1.0596,1.0598,1.0642,0,0,1.0606,1.0607,0,0,0,0,0,0,0,0,1.052,1.0525,1.0558,1.0557,1.0557,1.0576,1.0577,1.0609,1.057,1.0565,1.0567,1.0565,1.059,1.0592,1.0601,1.0643,1.0644,1.0606,1.0608,1.0609,1.0609,0,0,0,0,0,0,0,1.0518,1.0523,1.0575,1.0558,1.0558,1.0552,1.0555,1.0583,1.0585,1.0565,1.0564,1.0567,1.0589,1.0598,1.0601,1.0645,1.0606,1.0608,1.061,1.0611,1.0725,1.0726,0,0,0,0,0,0,1.0517,1.0522,1.0574,1.0576,1.0535,1.0555,1.0557,1.0571,1.0584,1.0585,1.0568,1.0566,1.0595,1.0598,1.0602,1.0654,1.0609,1.0611,1.0612,1.0723,1.0725,1.0727,0,0,0,0,0,0,1.0515,1.0522,1.0573,1.0548,1.0554,1.0557,1.0573,1.0572,1.0581,1.0587,1.0587,1.0577,1.0594,1.0598,1.0632,1.0655,1.0612,1.0614,1.0721,1.0724,1.0726,1.0759,0,0,0,0,0,0,1.0513,1.0521,1.0538,1.0549,1.0556,1.0603,1.0574,1.0574,1.0586,1.0583,1.0595,1.0596,1.0593,1.0629,1.0635,1.0658,1.0616,1.0719,1.0723,1.0725,1.0756,1.0763,1.0768,0,0,0,0,0,1.0511,1.0546,1.0539,1.0546,1.0577,1.0604,1.0608,1.0604,1.0588,1.0605,1.0608,1.0596,1.0651,1.0632,1.0639,1.0663,1.0718,1.0722,1.0725,1.0754,1.0761,1.0768,0,0,0,0,0,0,1.0538,1.0548,1.054,1.058,1.0591,1.0601,1.0622,1.0612,1.0629,1.0626,1.062,1.0623,1.0659,1.0664,1.0643,1.0706,1.0682,1.0687,1.0702,1.0709,1.0715,1.0713,1.0618,0,0,0,0,0,1.0549,1.0571,1.0577,1.0612,1.0618,1.0619,1.0631,1.0627,1.0639,1.0644,1.0649,1.0662,1.0682,1.0695,1.0714,1.0756,1.0759,1.0776,1.0782,1.0787,1.0792,1.0815,1.0823,1.0738,1.0738,1.0738,0,0,1.0571,1.0579,1.0593,1.0618,1.0626,1.0649,1.0623,1.0649,1.0666,1.0647,1.068,1.0684,1.0697,1.0736,1.0753,1.0741,1.0815,1.0791,1.0795,1.0797,1.0819,1.0827,1.0835,1.0741,1.074,1.074,0,0,1.0624,1.0632,1.0662,1.0671,1.0684,1.0684,1.0691,1.0702,1.0704,1.0737,1.0724,1.0743,1.0778,1.0788,1.0798,1.0854,1.0843,1.086,1.0891,1.0914,1.0921,1.0926,1.0948,1.0955,1.0864,1.0864,1.0864,0,1.065,1.0684,1.0678,1.0705,1.0716,1.07,1.0731,1.0739,1.0758,1.0767,1.0753,1.0796,1.0804,1.0845,1.0858,1.0866,1.0875,1.0859,1.092,1.0926,1.0931,1.0951,1.0959,1.0866,1.0866,1.0866,1.0866,0,1.0716,1.074,1.0763,1.0782,1.0795,1.0823,1.0822,1.0836,1.083,1.0832,1.0865,1.0873,1.0894,1.0903,1.0897,1.0943,1.0935,1.0921,1.0897,1.0942,1.096,1.0968,1.0869,1.0869,1.0868,1.0867,0,0,1.0789,1.0803,1.0812,1.082,1.0834,1.0852,1.0879,1.0899,1.0912,1.0925,1.0948,1.0978,1.0964,1.0975,1.0971,1.099,1.1035,1.0974,1.0974,1.0986,1.1087,1.1099,1.1108,1.1028,1.1029,1.103,1.1087,0,1.0843,1.0891,1.0886,1.0932,1.0954,1.0939,1.0963,1.0973,1.0975,1.0994,1.0996,1.1017,1.0997,1.1004,1.1023,1.1026,1.1056,1.1021,1.105,1.1051,1.1049,1.1118,1.1131,1.1184,1.1094,1.1095,1.1096,0,1.0913,1.0929,1.0977,1.0988,1.0997,1.1018,1.1036,1.1054,1.1066,1.1066,1.1078,1.1069,1.1097,1.1071,1.1109,1.1086,1.1097,1.11,1.1102,1.1106,1.1078,1.1125,1.12,1.1209,1.1107,1.1106,1.1105,0,1.0963,1.0996,1.1029,1.1037,1.1049,1.1065,1.1071,1.1081,1.1093,1.1108,1.1117,1.1135,1.1145,1.116,1.1156,1.1138,1.1196,1.1169,1.1197,1.1197,1.1211,1.1211,1.1291,1.1216,1.1216,1.1215,1.1215,0,1.1025,1.1056,1.1052,1.1073,1.1106,1.11,1.1133,1.1137,1.1146,1.1167,1.1154,1.1174,1.1168,1.1187,1.1185,1.1217,1.1222,1.1223,1.1222,1.1225,1.1225,1.1233,1.123,1.1218,1.1217,1.1217,1.1216,0,1.1087,1.1086,1.1121,1.113,1.1133,1.1157,1.1164,1.1184,1.1184,1.1211,1.1217,1.1217,1.124,1.1237,1.1262,1.1261,1.1301,1.1295,1.1298,1.1297,1.1326,1.1324,1.1415,1.1428,1.1343,1.1344,1.1344,0,1.1128,1.1151,1.1162,1.1175,1.1182,1.1204,1.1216,1.121,1.1224,1.1239,1.1256,1.1278,1.1295,1.1331,1.1334,1.1353,1.1348,1.1379,1.1351,1.1354,1.1351,1.135,1.1353,1.1385,1.1386,1.1387,1.1388,0,1.1201,1.1199,1.1218,1.1236,1.1252,1.1266,1.1279,1.1291,1.1286,1.1302,1.1325,1.1338,1.1363,1.1385,1.1403,1.1408,1.1398,1.1396,1.1404,1.1408,1.1409,1.141,1.1315,1.1394,1.1394,1.1393,1.1393,1.1393,1.1254,1.1274,1.1285,1.1307,1.1316,1.1328,1.1347,1.135,1.1369,1.139,1.1384,1.141,1.1421,1.1444,1.1452,1.1472,1.1461,1.1472,1.1475,1.1478,1.1482,1.1404,1.1475,1.1475,1.1474,1.1474,1.1474,0,1.1328,1.1334,1.1354,1.1372,1.1389,1.1377,1.139,1.1405,1.1429,1.1439,1.1456,1.1483,1.1503,1.1507,1.1527,1.1542,1.1538,1.1548,1.1548,1.1549,1.149,1.1482,1.1551,1.1551,1.1551,1.1551,1.1551,1.1551,1.1368,1.1402,1.1401,1.1439,1.1445,1.1471,1.1479,1.1491,1.15,1.153,1.1547,1.1549,1.1557,1.1578,1.1596,1.1597,1.1605,1.1617,1.1616,1.1561,1.1553,1.1546,1.1539,1.1619,1.1619,1.1674,1.1675,1.1675]},{"header":{"parameterUnit":"m.s-1","parameterCategory":1,"la1":30.2991,"la2":30.254,"lo1":-89.0895,"lo2":-89.0444,"dy":0.0017,"dx":0.0017,"nx":28,"ny":28,"refTime":"2025-03-31T09:00:00:Z","depth":0,"parameterNumber":3,"parameterNumberName":"V-component_of_WINDS"},"data":[0,0,0,0,0,0,0,0,0,0,0,0,0,0,0,0,0,0,0,0,0,0,0,0,0,0,0,0,0,0,0,0,0,0,0,0,0,0,0,0,0,0,0,0,0,0,0,0,0,0,0,0,0,0,0,0,0,0,3.7425,3.7426,0,3.7526,3.7527,3.7528,3.7536,3.7534,3.7533,3.7532,3.7635,3.7639,3.7642,0,0,0,0,0,0,0,0,0,0,0,0,0,3.7237,3.7241,3.7425,3.7426,3.7427,3.7525,3.7527,3.7528,3.7536,3.7534,3.7533,3.7532,3.7634,3.7638,3.7643,0,0,0,0,0,0,0,0,0,0,0,0,0,3.7326,3.7242,3.7424,3.7443,3.7445,3.7525,3.7527,3.7529,3.7536,3.7534,3.7533,3.7531,3.7632,3.7638,3.7643,3.7711,0,0,3.7661,3.7663,0,0,0,0,0,0,0,0,3.7321,3.7333,3.7439,3.7442,3.7445,3.7516,3.7498,3.759,3.7536,3.7502,3.7532,3.753,3.7597,3.7605,3.7628,3.7716,3.7721,3.7661,3.7664,3.7667,3.7668,0,0,0,0,0,0,0,3.7315,3.7329,3.7465,3.744,3.7444,3.7446,3.7456,3.7516,3.7557,3.7504,3.7505,3.7517,3.7598,3.7622,3.763,3.7722,3.7661,3.7666,3.7669,3.7672,3.7872,3.7874,0,0,0,0,0,0,3.7306,3.7324,3.7461,3.7468,3.7378,3.745,3.7462,3.7495,3.7557,3.7564,3.7518,3.7517,3.7613,3.7624,3.7634,3.7719,3.7667,3.7672,3.7675,3.787,3.7873,3.7875,0,0,0,0,0,0,3.7302,3.7318,3.7457,3.7396,3.7414,3.7455,3.7492,3.7498,3.7522,3.7567,3.7575,3.7536,3.7613,3.7626,3.7692,3.7722,3.7675,3.768,3.7868,3.7871,3.7874,3.7888,0,0,0,0,0,0,3.7296,3.7316,3.7343,3.7397,3.7417,3.7514,3.7494,3.7501,3.7532,3.7531,3.7585,3.7593,3.7612,3.7684,3.7698,3.7729,3.7684,3.7866,3.787,3.7873,3.7885,3.7891,3.7897,0,0,0,0,0,3.7289,3.7343,3.7344,3.7361,3.7451,3.7516,3.7528,3.755,3.7534,3.7561,3.759,3.7591,3.7716,3.7691,3.7707,3.774,3.7864,3.7868,3.7873,3.7883,3.789,3.7896,0,0,0,0,0,0,3.7291,3.735,3.7352,3.7425,3.7465,3.7517,3.7552,3.7556,3.7602,3.7599,3.7624,3.7636,3.7702,3.7727,3.7698,3.781,3.7789,3.7796,3.7791,3.7798,3.7804,3.7797,3.7689,0,0,0,0,0,3.73,3.7348,3.7396,3.7455,3.7476,3.751,3.7539,3.7553,3.7596,3.7613,3.7647,3.7688,3.7737,3.7769,3.7816,3.7889,3.7901,3.7919,3.7925,3.7929,3.7936,3.7977,3.7986,3.7889,3.7889,3.7889,0,0,3.7318,3.7357,3.7385,3.7457,3.749,3.7539,3.7525,3.7577,3.7614,3.7621,3.7686,3.7712,3.776,3.783,3.7863,3.7853,3.7965,3.7935,3.7938,3.7943,3.7983,3.7992,3.8,3.7892,3.7892,3.7891,0,0,3.7378,3.7411,3.7465,3.7498,3.7549,3.7571,3.7584,3.7635,3.7653,3.7719,3.7725,3.7769,3.7852,3.7887,3.7915,3.7987,3.799,3.8001,3.8031,3.8071,3.8079,3.8085,3.8112,3.8122,3.8008,3.8008,3.8008,0,3.7395,3.747,3.7491,3.7544,3.7576,3.7584,3.7638,3.7669,3.7732,3.7754,3.7742,3.7848,3.788,3.7959,3.7977,3.7999,3.8015,3.7996,3.8076,3.8083,3.809,3.8116,3.8126,3.8009,3.8009,3.8009,3.8009,0,3.7488,3.754,3.7577,3.7639,3.7674,3.7727,3.7756,3.779,3.7799,3.7823,3.789,3.7929,3.7985,3.8005,3.8014,3.8085,3.8078,3.8071,3.805,3.81,3.8125,3.8135,3.8011,3.801,3.801,3.801,0,0,3.7553,3.7626,3.7639,3.7667,3.7723,3.7764,3.7817,3.7872,3.79,3.7943,3.7989,3.8059,3.8053,3.8085,3.8099,3.8133,3.819,3.8122,3.8124,3.8135,3.8271,3.8277,3.8288,3.8191,3.8193,3.8194,3.8267,0,3.762,3.7716,3.7737,3.782,3.7868,3.7876,3.7923,3.7962,3.7985,3.803,3.8055,3.8105,3.8093,3.8112,3.8147,3.8175,3.8217,3.817,3.8234,3.8236,3.8224,3.8301,3.8307,3.8374,3.8277,3.8278,3.828,0,3.7711,3.7757,3.7845,3.7895,3.7916,3.7958,3.801,3.8052,3.8097,3.8111,3.8147,3.8157,3.8213,3.8188,3.8266,3.8233,3.826,3.8278,3.8281,3.829,3.8262,3.8312,3.8396,3.8406,3.8295,3.8294,3.8293,0,3.7751,3.7834,3.7898,3.7922,3.7982,3.8011,3.8037,3.808,3.8112,3.8157,3.8178,3.8229,3.8257,3.8296,3.832,3.83,3.8396,3.8373,3.841,3.841,3.8431,3.843,3.8522,3.8446,3.8446,3.8446,3.8446,0,3.7825,3.7878,3.7917,3.7956,3.8017,3.804,3.8099,3.8125,3.8163,3.8207,3.8217,3.8258,3.8286,3.8331,3.8349,3.8411,3.8423,3.8437,3.8442,3.8437,3.8436,3.8457,3.8453,3.8449,3.8448,3.8447,3.8447,0,3.788,3.7908,3.7978,3.8029,3.8043,3.8086,3.8129,3.8167,3.819,3.8247,3.8261,3.8297,3.8351,3.8378,3.8444,3.8457,3.8527,3.8528,3.8513,3.8515,3.8551,3.8548,3.8661,3.8677,3.8589,3.859,3.859,0,3.7926,3.7968,3.8023,3.8054,3.8081,3.813,3.8163,3.8186,3.822,3.8274,3.8306,3.836,3.8405,3.8491,3.8523,3.8574,3.8577,3.8613,3.8585,3.858,3.858,3.8578,3.8582,3.8619,3.862,3.862,3.8621,0,3.8005,3.8017,3.8064,3.8116,3.8155,3.8197,3.8238,3.8263,3.8293,3.833,3.8386,3.842,3.8489,3.8543,3.8596,3.8623,3.8628,3.8629,3.8641,3.8638,3.8628,3.8635,3.8528,3.8627,3.8626,3.8626,3.8626,3.8625,3.8058,3.8096,3.8141,3.8194,3.8227,3.8266,3.8305,3.8333,3.8379,3.8437,3.8448,3.8507,3.855,3.8623,3.8651,3.8697,3.869,3.8706,3.871,3.8715,3.8717,3.8619,3.8707,3.8707,3.8707,3.8707,3.8706,0,3.8139,3.8169,3.8216,3.8274,3.8315,3.8315,3.8361,3.8396,3.8448,3.8488,3.8532,3.8596,3.8648,3.8684,3.8737,3.8768,3.8771,3.8781,3.878,3.8786,3.872,3.8706,3.8777,3.8777,3.8777,3.8777,3.8777,3.8777,3.8186,3.8251,3.8268,3.8349,3.8377,3.8436,3.8462,3.8498,3.853,3.8601,3.8645,3.8668,3.8707,3.8763,3.8811,3.882,3.884,3.885,3.886,3.8798,3.8791,3.8784,3.877,3.8854,3.8854,3.8922,3.8923,3.8923]}]]